Minatare, NE

3:01 AM MDT on September 27, 2016 (GMT -0600)
Heilig

Weather History for KBFF - September, 2012

Change the Weather History Date:

Sunday, September 30, 2012

  Actual Average Record
Temperature  
Mean Temperature 66 °F 55 °F  
Max Temperature 82 °F 71 °F 94 °F (1980)
Min Temperature 50 °F 39 °F 19 °F (1985)
Degree Days  
Heating Degree Days 0 10  
Month to date heating degree days 71 159  
Since 1 July heating degree days 76 179  
Cooling Degree Days 1 0  
Month to date cooling degree days 83 58  
Year to date cooling degree days 1208 723  
Growing Degree Days 16 (Base 50)    
Moisture  
Dew Point 40 °F    
Average Humidity 46    
Maximum Humidity 74    
Minimum Humidity 18    
Precipitation  
Precipitation T in 0.04 in 0.78 in (1904)
Month to date precipitation 0.79 1.18  
Year to date precipitation 5.64 13.48  
Snow  
Snow 0.00 in 0.00 in - ()
Month to date snowfall 0.0 0.5  
Since 1 July snowfall 0.0 0.5  
Snow Depth 0.00 in    
Sea Level Pressure  
Sea Level Pressure 29.99 in    
Wind  
Wind Speed 10 mph (NNW)    
Max Wind Speed 22 mph    
Max Gust Speed 28 mph    
Visibility 10 miles    
Events      
T = Trace of Precipitation, MM = Missing Value Source: NWS Daily Summary

Daily Weather History Graph

Daily Weather History Graph

Search for Another Location

Airport or City:

Trip Planner

Search our weather history database for the weather conditions in past years. The results will help you decide how hot, cold, wet, or windy it might be!

Date:

Astronomy

Sep. 30, 2012 Rise Set
Actual Time 6:50 AM MDT 6:36 PM MDT
Civil Twilight 6:23 AM MDT 7:04 PM MDT
Nautical Twilight 5:50 AM MDT 7:36 PM MDT
Astronomical Twilight 5:17 AM MDT 8:09 PM MDT
Moon 6:40 PM MDT (9/30) 7:25 AM MDT (9/30)
Length of Visible Light 12h 41m
Length of Day
11h 46m
Full, 100% of the Moon is Illuminated
Sep 30
Full
Oct 8
Last Quarter
Oct 15
New
Oct 21
First Quarter
Oct 29
Full

Hourly Weather History & Observations

Time (MDT) Temp. Dew Point Humidity Pressure Visibility Wind Dir Wind Speed Gust Speed Precip Events Conditions
12:53 AM 55.0 °F 42.1 °F 62% 29.96 in 10.0 mi NNW 9.2 mph - N/A   Partly Cloudy
1:53 AM 57.0 °F 43.0 °F 59% 29.94 in 10.0 mi NNW 6.9 mph - N/A   Mostly Cloudy
2:53 AM 55.0 °F 43.0 °F 64% 29.95 in 10.0 mi West 5.8 mph - N/A   Partly Cloudy
3:53 AM 55.0 °F 44.1 °F 67% 29.95 in 10.0 mi NW 8.1 mph - N/A   Clear
4:53 AM 53.1 °F 43.0 °F 69% 29.95 in 10.0 mi WNW 8.1 mph - N/A   Clear
5:53 AM 50.0 °F 43.0 °F 77% 29.97 in 10.0 mi NW 5.8 mph - N/A   Scattered Clouds
6:53 AM 50.0 °F 42.1 °F 74% 30.00 in 10.0 mi NW 4.6 mph - N/A   Clear
7:53 AM 57.0 °F 42.1 °F 57% 30.00 in 10.0 mi WNW 8.1 mph - N/A   Clear
8:53 AM 63.0 °F 42.1 °F 46% 30.00 in 10.0 mi West 9.2 mph - N/A   Clear
9:53 AM 70.0 °F 44.1 °F 39% 29.99 in 10.0 mi WNW 11.5 mph - N/A   Clear
10:53 AM 75.9 °F 41.0 °F 29% 29.99 in 10.0 mi NW 15.0 mph 23.0 mph N/A   Clear
11:24 AM 80.6 °F 37.4 °F 21% 30.10 in 10.0 mi North 16.1 mph 24.2 mph N/A   Clear
11:53 AM 79.0 °F 37.0 °F 22% 29.98 in 10.0 mi NNW 18.4 mph 27.6 mph N/A   Partly Cloudy
12:53 PM 80.1 °F 37.0 °F 21% 29.98 in 10.0 mi NNW 16.1 mph 23.0 mph N/A   Clear
1:53 PM 81.0 °F 36.0 °F 20% 29.96 in 10.0 mi NNW 17.3 mph 25.3 mph N/A   Clear
2:53 PM 81.0 °F 36.0 °F 20% 29.95 in 10.0 mi NNW 15.0 mph - N/A   Clear
3:53 PM 82.0 °F 36.0 °F 19% 29.94 in 10.0 mi North 11.5 mph 21.9 mph N/A   Clear
4:53 PM 78.1 °F 34.0 °F 20% 29.95 in 10.0 mi NNW 12.7 mph - N/A   Partly Cloudy
5:53 PM 75.0 °F 34.0 °F 22% 29.97 in 10.0 mi North 9.2 mph - N/A   Clear
6:53 PM 66.0 °F 39.0 °F 37% 30.00 in 10.0 mi North 3.5 mph - N/A   Partly Cloudy
7:53 PM 63.0 °F 37.9 °F 40% 30.02 in 10.0 mi North 10.4 mph - N/A   Partly Cloudy
8:53 PM 64.9 °F 37.9 °F 37% 30.02 in 10.0 mi North 8.1 mph - N/A   Mostly Cloudy
9:53 PM 64.9 °F 39.0 °F 39% 30.03 in 10.0 mi NNE 9.2 mph - N/A   Overcast
10:53 PM 64.0 °F 39.9 °F 41% 30.03 in 10.0 mi NNE 6.9 mph - N/A   Scattered Clouds
11:53 PM 62.1 °F 41.0 °F 46% 30.05 in 10.0 mi NNW 4.6 mph - N/A   Overcast